RSS Eijerkamp Webshop

4, 17, 18, 19, 20, 21, 24, 25, 28 etc Laon in Area the IJssel

09/09/2017

The last 2017 race was another one where those responsible for releasing the pigeons had a challenging task. Many Sections held their pigeons over, but ours were let up. En route the definitely had to deal with rain and thunders storms, but despite these obstacles the first pigeons were flying at speeds above 100 km/hr.

Briefly looking back at this season, we can say that it was one of the best seasons we have had in recent years. From 12 races, we won first prizes and prize percentages were very high all season. Especially the latter is a measure of quality and proves that the quality in width and breath in our lofts is fine and we are already looking forward to the 2018 season.

 
First 35 arrivals from Laon
Distance: 328.408 kmLiberation time: 12:00Wind direction: W
#Band Nr.ClockedVelocityPhoto pigeonEye photoPedigree
1 NL16-1253685 09/09/2017 15:25:47 1,595.9mpm
2 NL14-1603584 09/09/2017 15:30:57 1,556.8mpm
3 NL16-1254249 09/09/2017 15:30:58 1,556.7mpm
4 NL16-1254315 09/09/2017 15:30:58 1,556.7mpm
5 NL14-1603311 09/09/2017 15:31:00 1,556.4mpm
6 NL15-1362705 09/09/2017 15:31:04 1,555.9mpm
7 NL16-1254276 09/09/2017 15:32:13 1,547.5mpm
8 NL15-1362538 09/09/2017 15:32:16 1,547.1mpm
9 NL15-1363411 09/09/2017 15:34:57 1,527.8mpm
10 NL16-1254424 09/09/2017 15:35:38 1,523.0mpm
11 NL14-1603855 09/09/2017 15:35:39 1,522.9mpm
12 NL14-1603998 09/09/2017 15:36:07 1,519.6mpm
13 NL16-1254179 09/09/2017 15:36:50 1,514.6mpm
14 NL16-1253495 09/09/2017 15:37:32 1,509.7mpm
15 NL15-1362593 09/09/2017 15:38:46 1,501.2mpm
16 NL15-1364905 09/09/2017 15:38:59 1,499.7mpm
17 NL16-1253577 09/09/2017 15:39:02 1,499.4mpm
18 NL16-1253565 09/09/2017 15:39:15 1,497.9mpm
19 NL16-1253582 09/09/2017 15:40:03 1,492.4mpm
20 NL16-1254387 09/09/2017 15:41:07 1,485.2mpm
21 NL14-1603443 09/09/2017 15:41:11 1,484.8mpm
22 NL15-1362830 09/09/2017 15:41:45 1,481.0mpm
23 NL16-1253641 09/09/2017 15:43:35 1,468.8mpm
24 NL16-1253596 09/09/2017 15:44:27 1,463.2mpm
25 NL15-1362814 09/09/2017 15:44:54 1,460.2mpm
26 NL15-1362829 09/09/2017 15:45:06 1,458.9mpm
27 NL16-1254194 09/09/2017 15:45:59 1,453.2mpm
28 NL15-1364386 09/09/2017 15:46:29 1,450.0mpm
29 NL15-1362841 09/09/2017 15:46:31 1,449.8mpm
30 NL16-1253725 09/09/2017 15:47:25 1,444.1mpm
31 NL14-1603452 09/09/2017 15:50:08 1,427.0mpm
32 B15-6108419 09/09/2017 15:50:44 1,423.3mpm
33 NL16-1254255 09/09/2017 15:53:38 1,405.7mpm
34 NL16-1253598 09/09/2017 15:55:17 1,395.8mpm
35 NL16-1253432 09/09/2017 16:10:34 1,310.7mpm
<<< Back
Dakota Sold Dakota Sold
Dakota 
USD 862
Racing pigeon for sale Calliope
Calliope Hen
USD 1,108
Racing pigeon for sale Jackal
Jackal Cock
USD 862
Racing pigeon for sale Marjorie
Marjorie Hen
USD 1,540
Racing pigeon for sale Qiangshe
Qiangshe Cock
USD 985
Racing pigeon for sale Energy
Energy Cock
USD 924